Date String (YYYY-MM-DD hh:mm:ss) UTC,Instrument flags,absolute air pressure of the measurement (hPa),sample flow rate (lpm),inlet stack bypass flow (lpm),air temperature of the measurement (°C),ambient temperature measured by the external sensor (°C),aerosol sample conditioner tube jacket temperature (°C),OPC LED temperature (°C),internal box temperature (°C),relative humidity of the measurement (%),span deviation,mass concentration of particles derived from Lorenz-Mie calculation of OPC scattering (μg/m³),mass concentration of particles derived from Lorenz-Mie calculation of OPC scattering (μg/m³),mass concentration of particles derived from Lorenz-Mie calculation of OPC scattering (μg/m³)
DateTimeUTC,F1_M11,P_M11,Q1_M11,Q2_M11,T1_M11,T2_M11,T3_M11,T4_M11,T5_M11,U1_M11,ZSPAN_M11,X0_M11,X2_M11,X1_M11
2024-05-19 01:00:00,SystemResetWarning,0827.0,4.98,000.00,024.3,022.9,000.0,032.4,025.7,024.8,0000.0,0009.81,0004.19,0002.89
2024-05-19 01:01:00,SystemResetWarning,0827.0,5.01,000.00,024.0,021.8,000.0,032.4,025.1,025.0,0000.0,0009.82,0004.19,0002.89
2024-05-19 01:02:00,SystemResetWarning,0826.9,5.02,000.00,023.9,022.0,000.0,032.4,025.2,024.9,0000.0,0009.77,0004.21,0002.91
2024-05-19 01:03:00,SystemResetWarning,0826.9,5.00,000.00,023.9,022.3,000.0,032.3,025.3,024.4,0000.0,0009.49,0004.22,0002.91
2024-05-19 01:04:00,SystemResetWarning,0826.9,5.00,000.00,024.0,022.7,000.0,032.3,025.5,024.9,0000.0,0009.09,0004.21,0002.93
2024-05-19 01:05:00,SystemResetWarning,0826.9,5.01,000.00,024.0,023.0,000.0,032.2,025.7,024.5,0000.0,0009.28,0004.18,0002.94
2024-05-19 01:06:00,SystemResetWarning,0826.9,5.01,000.00,024.1,023.2,000.0,032.2,025.9,023.3,0000.0,0009.49,0004.22,0002.94
2024-05-19 01:07:00,SystemResetWarning,0826.9,4.98,000.00,024.2,023.5,000.0,032.2,026.0,023.7,0000.0,0009.52,0004.23,0002.94
2024-05-19 01:08:00,SystemResetWarning,0826.9,4.99,000.00,024.3,023.7,000.0,032.3,026.1,023.6,0000.0,0009.85,0004.25,0002.95
2024-05-19 01:09:00,SystemResetWarning,0826.9,5.01,000.00,024.3,023.8,000.0,032.3,026.2,023.8,0000.0,0009.87,0004.21,0002.93
2024-05-19 01:10:00,SystemResetWarning,0826.9,5.01,000.00,024.4,023.8,000.0,032.4,026.2,023.6,0000.0,0009.88,0004.20,0002.92
2024-05-19 01:11:00,SystemResetWarning,0826.8,4.99,000.00,024.2,022.3,000.0,032.4,025.4,024.2,0000.0,0009.78,0004.19,0002.93
2024-05-19 01:12:00,SystemResetWarning,0826.8,5.02,000.00,024.0,021.8,000.0,032.5,025.1,025.2,0000.0,0009.79,0004.21,0002.93
2024-05-19 01:13:00,SystemResetWarning,0826.8,5.01,000.00,023.9,022.1,000.0,032.4,025.2,025.7,0000.0,0009.72,0004.20,0002.92
2024-05-19 01:14:00,SystemResetWarning,0826.9,5.00,000.00,024.0,022.4,000.0,032.3,025.4,026.4,0000.0,0009.76,0004.25,0002.99
2024-05-19 01:15:00,SystemResetWarning,0826.9,4.99,000.00,024.0,022.8,000.0,032.3,025.6,026.5,0000.0,0010.78,0004.24,0003.02
2024-05-19 01:16:00,SystemResetWarning,0826.9,4.99,000.00,024.1,023.0,000.0,032.3,025.8,026.8,0000.0,0012.05,0004.29,0003.03
2024-05-19 01:17:00,SystemResetWarning,0826.9,5.00,000.00,024.2,023.3,000.0,032.3,026.0,026.4,0000.0,0012.88,0004.27,0003.04
2024-05-19 01:18:00,SystemResetWarning,0826.8,5.00,000.00,024.2,023.5,000.0,032.3,026.1,025.8,0000.0,0013.37,0004.28,0003.07
2024-05-19 01:19:00,SystemResetWarning,0826.9,5.00,000.00,024.3,023.7,000.0,032.3,026.2,025.7,0000.0,0013.32,0004.32,0003.08
2024-05-19 01:20:00,SystemResetWarning,0826.9,5.00,000.00,024.4,023.9,000.0,032.3,026.3,025.0,0000.0,0013.35,0004.36,0003.11
2024-05-19 01:21:00,SystemResetWarning,0826.9,5.00,000.00,024.5,024.0,000.0,032.4,026.4,024.8,0000.0,0013.52,0004.40,0003.13
2024-05-19 01:22:00,SystemResetWarning,0826.9,4.99,000.00,024.5,024.1,000.0,032.4,026.5,025.3,0000.0,0014.07,0004.45,0003.15
2024-05-19 01:23:00,SystemResetWarning,0826.9,5.00,000.00,024.4,022.8,000.0,032.5,025.7,026.3,0000.0,0014.29,0004.46,0003.15
2024-05-19 01:24:00,SystemResetWarning,0826.8,5.00,000.00,024.0,021.0,000.0,032.6,024.7,027.5,0000.0,0014.40,0004.48,0003.16
2024-05-19 01:25:00,SystemResetWarning,0826.8,5.01,000.00,023.8,021.0,000.0,032.5,024.7,028.1,0000.0,0014.28,0004.43,0003.14
2024-05-19 01:26:00,SystemResetWarning,0826.8,5.01,000.00,023.7,021.4,000.0,032.4,024.9,028.0,0000.0,0013.40,0004.44,0003.13
2024-05-19 01:27:00,SystemResetWarning,0826.8,4.99,000.00,023.8,021.8,000.0,032.3,025.1,027.7,0000.0,0012.84,0004.42,0003.13
2024-05-19 01:28:00,SystemResetWarning,0826.8,4.99,000.00,023.8,022.2,000.0,032.2,025.3,027.6,0000.0,0011.92,0004.43,0003.14
2024-05-19 01:29:00,SystemResetWarning,0826.9,5.00,000.00,023.9,022.6,000.0,032.2,025.5,027.5,0000.0,0011.44,0004.43,0003.14
2024-05-19 01:30:00,SystemResetWarning,0826.9,5.01,000.00,023.9,022.9,000.0,032.2,025.7,027.7,0000.0,0011.31,0004.44,0003.13
2024-05-19 01:31:00,SystemResetWarning,0826.9,5.01,000.00,024.0,023.1,000.0,032.2,025.8,027.3,0000.0,0011.53,0004.47,0003.13
2024-05-19 01:32:00,SystemResetWarning,0827.0,5.01,000.00,024.1,023.4,000.0,032.2,026.0,027.6,0000.0,0011.89,0004.49,0003.11
2024-05-19 01:33:00,SystemResetWarning,0826.9,4.99,000.00,024.2,023.6,000.0,032.2,026.1,027.5,0000.0,0011.70,0004.48,0003.06
2024-05-19 01:34:00,SystemResetWarning,0826.9,5.00,000.00,024.3,023.7,000.0,032.2,026.2,027.4,0000.0,0011.99,0004.50,0003.06
2024-05-19 01:35:00,SystemResetWarning,0827.0,4.99,000.00,024.3,023.9,000.0,032.3,026.3,027.3,0000.0,0012.82,0004.53,0003.07
2024-05-19 01:36:00,SystemResetWarning,0826.9,5.01,000.00,024.4,024.0,000.0,032.3,026.4,027.1,0000.0,0013.85,0004.54,0003.07
2024-05-19 01:37:00,SystemResetWarning,0826.9,5.01,000.00,024.5,024.1,000.0,032.4,026.5,027.1,0000.0,0014.13,0004.59,0003.07
2024-05-19 01:38:00,SystemResetWarning,0826.9,5.00,000.00,024.5,023.7,000.0,032.4,026.2,026.9,0000.0,0013.69,0004.59,0003.06
2024-05-19 01:39:00,SystemResetWarning,0826.8,4.99,000.00,024.2,022.0,000.0,032.5,025.3,027.2,0000.0,0013.36,0004.61,0003.05
2024-05-19 01:40:00,SystemResetWarning,0826.8,5.02,000.00,024.1,021.9,000.0,032.5,025.2,027.6,0000.0,0013.61,0004.61,0003.05
2024-05-19 01:41:00,SystemResetWarning,0826.8,4.99,000.00,024.0,022.2,000.0,032.4,025.3,027.5,0000.0,0014.52,0004.62,0003.05
2024-05-19 01:42:00,SystemResetWarning,0826.8,4.99,000.00,024.1,022.5,000.0,032.4,025.6,027.4,0000.0,0014.55,0004.59,0003.06
2024-05-19 01:43:00,SystemResetWarning,0826.8,5.00,000.00,024.1,022.8,000.0,032.3,025.7,027.4,0000.0,0014.69,0004.59,0003.06
2024-05-19 01:44:00,SystemResetWarning,0826.8,5.00,000.00,024.2,023.1,000.0,032.3,025.9,027.0,0000.0,0014.64,0004.61,0003.08
2024-05-19 01:45:00,SystemResetWarning,0826.8,5.00,000.00,024.2,023.3,000.0,032.3,026.0,026.7,0000.0,0014.03,0004.55,0003.09
2024-05-19 01:46:00,SystemResetWarning,0826.8,5.00,000.00,024.3,023.6,000.0,032.3,026.2,025.9,0000.0,0013.43,0004.51,0003.09
2024-05-19 01:47:00,SystemResetWarning,0826.8,5.00,000.00,024.4,023.7,000.0,032.4,026.3,024.5,0000.0,0012.79,0004.50,0003.09
2024-05-19 01:48:00,SystemResetWarning,0826.8,4.98,000.00,024.4,023.9,000.0,032.4,026.3,023.6,0000.0,0012.87,0004.49,0003.09
2024-05-19 01:49:00,SystemResetWarning,0826.8,5.01,000.00,024.5,024.0,000.0,032.4,026.4,023.5,0000.0,0012.94,0004.49,0003.10
2024-05-19 01:50:00,SystemResetWarning,0826.8,4.99,000.00,024.5,023.1,000.0,032.5,025.9,023.8,0000.0,0012.69,0004.47,0003.11
2024-05-19 01:51:00,SystemResetWarning,0826.7,5.01,000.00,024.2,021.8,000.0,032.6,025.2,024.3,0000.0,0012.04,0004.43,0003.12
2024-05-19 01:52:00,SystemResetWarning,0826.7,5.01,000.00,024.0,021.9,000.0,032.6,025.1,024.4,0000.0,0011.29,0004.47,0003.14
2024-05-19 01:53:00,SystemResetWarning,0826.8,5.00,000.00,024.0,022.2,000.0,032.4,025.3,024.4,0000.0,0010.89,0004.43,0003.16
2024-05-19 01:54:00,SystemResetWarning,0826.8,5.00,000.00,024.1,022.6,000.0,032.4,025.6,024.4,0000.0,0010.70,0004.40,0003.19
2024-05-19 01:55:00,SystemResetWarning,0826.8,5.00,000.00,024.1,022.9,000.0,032.3,025.7,024.4,0000.0,0011.02,0004.39,0003.21
2024-05-19 01:56:00,SystemResetWarning,0826.8,5.00,000.00,024.2,023.1,000.0,032.3,025.9,024.5,0000.0,0011.49,0004.43,0003.23
2024-05-19 01:57:00,SystemResetWarning,0826.9,5.00,000.00,024.2,023.4,000.0,032.3,026.1,024.8,0000.0,0011.83,0004.43,0003.24
2024-05-19 01:58:00,SystemResetWarning,0826.9,5.00,000.00,024.3,023.6,000.0,032.3,026.1,026.4,0000.0,0011.98,0004.41,0003.25
2024-05-19 01:59:00,SystemResetWarning,0826.9,5.00,000.00,024.4,023.8,000.0,032.4,026.3,026.7,0000.0,0011.57,0004.39,0003.26
